Location: Champs
(48.8539°N, 2.6040°E)
Time: 16:39:05
(UTC+00:00)

Cosmos 2056 Rocket - Pass Details

Date: 03 June 2022
Orbit: 741 x 801 km, 74.0° (Epoch: 01 July)

Event Time Altitude Azimuth Distance (km) Brightness Sun altitude
Exits shadow 00:31:09 - 129° (SE) 2,471 5.9 -18.2°
Reaches altitude 10° 00:31:58 10° 121° (ESE) 2,304 5.8 -18.2°
Maximum altitude 00:34:28 14° 92° (E) 2,074 5.8 -18.1°
Drops below altitude 10° 00:36:59 10° 64° (ENE) 2,332 6.5 -18.0°
Sets 00:40:35 0° 39° (NE) 3,280 7.9 -17.9°
